| time (UTC) | temp F | wind direction | speed MPH | gust MPH | rain 1hr in | rain 24hr in | rain mn in | humidity % | barometer mb |
| 20260902153120 | 60 | 226 | 2.0 | 5.0 | 0.00 | 0.02 | 0.02 | 99 | 1018.8 |
| 20260902152614 | 60 | 227 | 2.0 | 5.0 | 0.00 | 0.02 | 0.02 | 99 | 1019.0 |
| 20260902152108 | 60 | 227 | 2.0 | 10.0 | 0.00 | 0.02 | 0.02 | 99 | 1019.0 |
| 20260902151052 | 60 | 209 | 3.0 | 9.0 | 0.00 | 0.02 | 0.02 | 99 | 1019.2 |
| 20260902150545 | 60 | 202 | 3.0 | 9.0 | 0.00 | 0.02 | 0.02 | 99 | 1019.2 |
| 20260902150034 | 60 | 196 | 1.0 | 7.0 | 0.00 | 0.02 | 0.02 | 99 | 1019.2 |
| 20260902145528 | 60 | 126 | 2.0 | 5.0 | 0.00 | 0.02 | 0.02 | 99 | 1019.1 |
| 20260902145023 | 60 | 221 | 3.0 | 7.0 | 0.00 | 0.02 | 0.02 | 99 | 1019.1 |
| 20260902144512 | 60 | 221 | 2.0 | 7.0 | 0.00 | 0.02 | 0.02 | 99 | 1019.2 |
| 20260902144007 | 60 | 219 | 2.0 | 7.0 | 0.00 | 0.02 | 0.02 | 99 | 1019.4 |
| 20260902143500 | 60 | 225 | 2.0 | 6.0 | 0.00 | 0.02 | 0.02 | 99 | 1019.3 |
| 20260902143214 | 60 | 227 | 2.0 | 7.0 | 0.00 | 0.02 | 0.02 | 99 | 1019.4 |
| 20260902142444 | 60 | 181 | 2.0 | 7.0 | 0.00 | 0.02 | 0.02 | 99 | 1019.4 |
| 20260902141939 | 60 | 225 | 2.0 | 4.0 | 0.00 | 0.03 | 0.02 | 99 | 1019.2 |
| 20260902141428 | 60 | 194 | 2.0 | 4.0 | 0.00 | 0.03 | 0.02 | 99 | 1019.1 |
| 20260902141142 | 60 | 0 | 1.0 | 6.0 | 0.00 | 0.03 | 0.02 | 99 | 1019.1 |
| 20260902140417 | 60 | 163 | 1.0 | 6.0 | 0.00 | 0.04 | 0.02 | 99 | 1019.0 |
| 20260902135907 | 60 | 176 | 1.0 | 4.0 | 0.00 | 0.04 | 0.02 | 99 | 1018.9 |
| 20260902135401 | 60 | 178 | 1.0 | 4.0 | 0.00 | 0.05 | 0.02 | 99 | 1018.9 |
| 20260902134904 | 60 | 196 | 1.0 | 6.0 | 0.00 | 0.05 | 0.02 | 99 | 1018.8 |
| 20260902134620 | 60 | 215 | 2.0 | 6.0 | 0.00 | 0.06 | 0.02 | 99 | 1018.9 |
| 20260902133857 | 60 | 213 | 2.0 | 6.0 | 0.00 | 0.06 | 0.02 | 99 | 1018.9 |
| 20260902133619 | 60 | 201 | 3.0 | 6.0 | 0.00 | 0.07 | 0.02 | 99 | 1018.9 |
| 20260902132900 | 60 | 250 | 3.0 | 7.0 | 0.00 | 0.07 | 0.02 | 99 | 1018.9 |
| 20260902132355 | 60 | 177 | 3.0 | 7.0 | 0.00 | 0.07 | 0.02 | 99 | 1019.0 |
| 20260902131854 | 60 | 178 | 3.0 | 6.0 | 0.00 | 0.08 | 0.02 | 99 | 1019.1 |
| 20260902131357 | 60 | 241 | 3.0 | 6.0 | 0.00 | 0.08 | 0.02 | 99 | 1019.1 |
| 20260902130855 | 60 | 202 | 2.0 | 6.0 | 0.00 | 0.08 | 0.02 | 99 | 1018.9 |
| 20260902130618 | 60 | 217 | 3.0 | 8.0 | 0.00 | 0.09 | 0.02 | 99 | 1018.8 |
| 20260902125851 | 60 | 236 | 2.0 | 8.0 | 0.00 | 0.09 | 0.02 | 99 | 1018.8 |
| 20260902125354 | 60 | 193 | 1.0 | 4.0 | 0.00 | 0.09 | 0.02 | 99 | 1018.7 |
| 20260902124852 | 60 | 192 | 2.0 | 5.0 | 0.00 | 0.09 | 0.02 | 99 | 1018.7 |
| 20260902124351 | 60 | 218 | 3.0 | 9.0 | 0.00 | 0.09 | 0.02 | 99 | 1018.8 |
| 20260902124114 | 60 | 219 | 3.0 | 9.0 | 0.00 | 0.09 | 0.02 | 99 | 1018.7 |
| 20260902123347 | 60 | 198 | 2.0 | 9.0 | 0.00 | 0.09 | 0.02 | 98 | 1018.6 |
| 20260902122836 | 60 | 201 | 3.0 | 7.0 | 0.00 | 0.10 | 0.02 | 99 | 1018.5 |
| 20260902122329 | 60 | 225 | 3.0 | 7.0 | 0.00 | 0.10 | 0.02 | 98 | 1018.6 |
| 20260902122048 | 60 | 252 | 3.0 | 7.0 | 0.00 | 0.11 | 0.02 | 98 | 1018.6 |
| 20260902121331 | 60 | 224 | 2.0 | 7.0 | 0.00 | 0.12 | 0.02 | 98 | 1018.4 |
| 20260902120829 | 60 | 215 | 3.0 | 7.0 | 0.00 | 0.13 | 0.02 | 98 | 1018.4 |
| 20260902120329 | 60 | 210 | 3.0 | 7.0 | 0.00 | 0.14 | 0.02 | 99 | 1018.5 |
| 20260902115829 | 60 | 219 | 2.0 | 5.0 | 0.00 | 0.15 | 0.02 | 99 | 1018.6 |
| 20260902115329 | 60 | 235 | 3.0 | 8.0 | 0.00 | 0.16 | 0.02 | 99 | 1018.5 |
| 20260902114829 | 60 | 209 | 3.0 | 8.0 | 0.00 | 0.17 | 0.02 | 99 | 1018.5 |
| 20260902114326 | 61 | 234 | 2.0 | 6.0 | 0.00 | 0.17 | 0.02 | 99 | 1018.2 |
| 20260902113827 | 61 | 207 | 2.0 | 5.0 | 0.00 | 0.17 | 0.02 | 99 | 1018.2 |
| 20260902113327 | 61 | 167 | 1.0 | 4.0 | 0.00 | 0.18 | 0.02 | 99 | 1018.2 |
| 20260902113043 | 60 | 205 | 1.0 | 3.0 | 0.00 | 0.18 | 0.02 | 99 | 1018.2 |
| 20260902112326 | 60 | 204 | 1.0 | 4.0 | 0.00 | 0.19 | 0.02 | 99 | 1018.2 |
| 20260902112046 | 60 | 209 | 1.0 | 4.0 | 0.00 | 0.20 | 0.02 | 99 | 1018.4 |
| 20260902111321 | 61 | 238 | 1.0 | 5.0 | 0.00 | 0.21 | 0.02 | 99 | 1018.4 |
| 20260902111044 | 61 | 202 | 1.0 | 5.0 | 0.00 | 0.21 | 0.02 | 99 | 1018.6 |
| 20260902110541 | 61 | 202 | 1.0 | 2.0 | 0.00 | 0.22 | 0.02 | 99 | 1018.5 |
| 20260902105536 | 61 | 202 | 1.0 | 4.0 | 0.00 | 0.23 | 0.02 | 99 | 1018.5 |
| 20260902104819 | 61 | 194 | 0.0 | 2.0 | 0.00 | 0.24 | 0.02 | 99 | 1018.5 |
| 20260902104537 | 61 | 194 | 0.0 | 2.0 | 0.00 | 0.25 | 0.02 | 99 | 1018.4 |
| 20260902104040 | 61 | 194 | 0.0 | 2.0 | 0.00 | 0.25 | 0.02 | 99 | 1018.2 |
| 20260902103318 | 61 | 194 | 0.0 | 2.0 | 0.00 | 0.25 | 0.02 | 99 | 1018.2 |
| 20260902102815 | 61 | 194 | 0.0 | 2.0 | 0.00 | 0.26 | 0.02 | 99 | 1018.1 |
| 20260902102314 | 61 | 194 | 0.0 | 2.0 | 0.00 | 0.27 | 0.02 | 99 | 1018.1 |
| 20260902101533 | 61 | 194 | 0.0 | 2.0 | 0.00 | 0.27 | 0.02 | 99 | 1018.1 |
| 20260902100814 | 61 | 194 | 0.0 | 3.0 | 0.00 | 0.27 | 0.02 | 99 | 1018.0 |
| 20260902100314 | 61 | 194 | 1.0 | 3.0 | 0.00 | 0.27 | 0.02 | 99 | 1018.0 |
| 20260902095815 | 60 | 197 | 1.0 | 3.0 | 0.00 | 0.27 | 0.02 | 99 | 1018.1 |
| 20260902095314 | 60 | 197 | 1.0 | 6.0 | 0.00 | 0.27 | 0.02 | 99 | 1018.1 |
| 20260902094810 | 60 | 196 | 1.0 | 6.0 | 0.00 | 0.28 | 0.02 | 99 | 1018.2 |
| 20260902094312 | 60 | 204 | 1.0 | 4.0 | 0.00 | 0.28 | 0.02 | 99 | 1018.1 |
| 20260902093812 | 60 | 210 | 1.0 | 4.0 | 0.00 | 0.28 | 0.02 | 99 | 1018.1 |
| 20260902093532 | 60 | 211 | 1.0 | 3.0 | 0.00 | 0.28 | 0.02 | 99 | 1018.0 |
| 20260902092812 | 60 | 209 | 0.0 | 2.0 | 0.00 | 0.28 | 0.02 | 98 | 1017.9 |
| 20260902092312 | 60 | 209 | 0.0 | 2.0 | 0.00 | 0.29 | 0.02 | 98 | 1017.9 |
| 20260902091812 | 60 | 209 | 0.0 | 3.0 | 0.00 | 0.29 | 0.02 | 98 | 1018.0 |
| 20260902091312 | 60 | 209 | 1.0 | 4.0 | 0.00 | 0.30 | 0.02 | 98 | 1017.9 |
| 20260902090808 | 61 | 196 | 1.0 | 5.0 | 0.00 | 0.31 | 0.02 | 98 | 1018.0 |
| 20260902090533 | 61 | 168 | 2.0 | 5.0 | 0.00 | 0.32 | 0.02 | 98 | 1018.0 |
| 20260902085808 | 61 | 230 | 2.0 | 8.0 | 0.00 | 0.32 | 0.02 | 98 | 1018.1 |
| 20260902085307 | 61 | 184 | 1.0 | 8.0 | 0.00 | 0.33 | 0.02 | 98 | 1018.2 |
| 20260902084806 | 61 | 196 | 1.0 | 5.0 | 0.00 | 0.33 | 0.02 | 99 | 1018.2 |
| 20260902084307 | 61 | 194 | 1.0 | 5.0 | 0.00 | 0.33 | 0.02 | 98 | 1018.2 |
| 20260902083804 | 61 | 194 | 1.0 | 4.0 | 0.00 | 0.33 | 0.02 | 98 | 1018.2 |
| 20260902083303 | 61 | 159 | 0.0 | 2.0 | 0.00 | 0.33 | 0.02 | 98 | 1018.4 |
| 20260902082800 | 61 | 157 | 0.0 | 1.0 | 0.00 | 0.33 | 0.02 | 98 | 1018.4 |
| 20260902082259 | 61 | 157 | 0.0 | 3.0 | 0.00 | 0.33 | 0.02 | 98 | 1018.2 |
| 20260902081756 | 61 | 157 | 0.0 | 3.0 | 0.00 | 0.33 | 0.02 | 98 | 1018.0 |
| 20260902081255 | 61 | 132 | 0.0 | 1.0 | 0.00 | 0.33 | 0.02 | 98 | 1018.1 |
| 20260902080755 | 61 | 132 | 1.0 | 3.0 | 0.00 | 0.33 | 0.02 | 98 | 1018.1 |
| 20260902080512 | 61 | 132 | 1.0 | 3.0 | 0.00 | 0.33 | 0.02 | 98 | 1018.0 |
| 20260902075754 | 61 | 132 | 1.0 | 3.0 | 0.00 | 0.33 | 0.02 | 98 | 1017.9 |
| 20260902075252 | 61 | 126 | 1.0 | 3.0 | 0.00 | 0.33 | 0.02 | 98 | 1017.8 |
| 20260902075010 | 61 | 106 | 0.0 | 2.0 | 0.00 | 0.33 | 0.02 | 98 | 1017.8 |
| 20260902074251 | 61 | 105 | 0.0 | 2.0 | 0.00 | 0.33 | 0.02 | 98 | 1017.8 |
| 20260902073751 | 61 | 105 | 1.0 | 3.0 | 0.00 | 0.33 | 0.02 | 98 | 1017.9 |
| 20260902073249 | 61 | 105 | 1.0 | 3.0 | 0.00 | 0.33 | 0.02 | 98 | 1017.9 |
| 20260902072748 | 61 | 105 | 1.0 | 2.0 | 0.00 | 0.33 | 0.02 | 98 | 1017.9 |
| 20260902072249 | 61 | 105 | 0.0 | 3.0 | 0.00 | 0.33 | 0.02 | 98 | 1017.8 |
| 20260902071747 | 61 | 105 | 0.0 | 3.0 | 0.00 | 0.33 | 0.02 | 98 | 1018.0 |
| 20260902071245 | 62 | 151 | 0.0 | 2.0 | 0.00 | 0.33 | 0.02 | 98 | 1017.8 |
| 20260902070744 | 62 | 151 | 0.0 | 2.0 | 0.00 | 0.33 | 0.02 | 98 | 1017.9 |
| 20260902070242 | 62 | 151 | 0.0 | 2.0 | 0.00 | 0.33 | 0.02 | 98 | 1018.1 |
| 20260902065740 | 62 | 151 | 0.0 | 2.0 | 0.00 | 0.33 | 0.02 | 98 | 1018.1 |
| 20260902065240 | 62 | 151 | 0.0 | 2.0 | 0.00 | 0.33 | 0.02 | 98 | 1018.0 |
| 20260902064734 | 62 | 151 | 1.0 | 3.0 | 0.00 | 0.33 | 0.02 | 98 | 1017.9 |
| 20260902064229 | 62 | 144 | 0.0 | 3.0 | 0.00 | 0.33 | 0.02 | 98 | 1017.9 |
| 20260902063724 | 62 | 144 | 0.0 | 1.0 | 0.00 | 0.33 | 0.02 | 98 | 1017.8 |
| 20260902063222 | 62 | 144 | 0.0 | 1.0 | 0.00 | 0.33 | 0.02 | 98 | 1017.9 |
| 20260902062721 | 62 | 144 | 0.0 | 1.0 | 0.00 | 0.33 | 0.02 | 98 | 1017.9 |
| 20260902062222 | 62 | 144 | 0.0 | 2.0 | 0.00 | 0.33 | 0.02 | 98 | 1017.9 |
| 20260902061945 | 62 | 144 | 0.0 | 2.0 | 0.00 | 0.33 | 0.02 | 98 | 1018.0 |
| 20260902061218 | 62 | 144 | 0.0 | 2.0 | 0.00 | 0.33 | 0.02 | 98 | 1018.0 |
| 20260902060718 | 62 | 144 | 1.0 | 2.0 | 0.00 | 0.33 | 0.02 | 98 | 1018.0 |
| 20260902060217 | 62 | 143 | 0.0 | 2.0 | 0.00 | 0.33 | 0.02 | 98 | 1018.0 |
| 20260902055934 | 62 | 118 | 0.0 | 1.0 | 0.00 | 0.33 | 0.02 | 98 | 1017.9 |
| 20260902055212 | 62 | 118 | 0.0 | 1.0 | 0.00 | 0.33 | 0.02 | 98 | 1017.9 |
| 20260902054712 | 62 | 118 | 0.0 | 1.0 | 0.00 | 0.33 | 0.02 | 98 | 1017.8 |
| 20260902054212 | 62 | 118 | 0.0 | 2.0 | 0.00 | 0.33 | 0.02 | 98 | 1017.7 |
| 20260902053711 | 62 | 118 | 0.0 | 2.0 | 0.01 | 0.33 | 0.02 | 98 | 1017.7 |
| 20260902053208 | 61 | 113 | 0.0 | 0.0 | 0.01 | 0.33 | 0.02 | 98 | 1017.7 |
| 20260902052708 | 62 | 113 | 0.0 | 0.0 | 0.01 | 0.33 | 0.02 | 98 | 1017.6 |
| 20260902051930 | 62 | 113 | 0.0 | 1.0 | 0.01 | 0.33 | 0.02 | 98 | 1017.6 |
| 20260902051206 | 62 | 113 | 1.0 | 2.0 | 0.02 | 0.33 | 0.02 | 98 | 1017.6 |
| 20260902050706 | 62 | 113 | 1.0 | 2.0 | 0.02 | 0.33 | 0.02 | 98 | 1017.6 |
| 20260902050206 | 62 | 113 | 1.0 | 2.0 | 0.02 | 0.33 | 0.02 | 98 | 1017.6 |
| 20260902045925 | 62 | 113 | 1.0 | 4.0 | 0.02 | 0.33 | 0.02 | 98 | 1017.5 |
| 20260902045203 | 62 | 113 | 1.0 | 4.0 | 0.02 | 0.33 | 0.02 | 98 | 1017.6 |
| 20260902044701 | 62 | 112 | 1.0 | 3.0 | 0.02 | 0.33 | 0.02 | 98 | 1017.6 |
| 20260902044159 | 62 | 112 | 1.0 | 3.0 | 0.02 | 0.33 | 0.02 | 98 | 1017.5 |
| 20260902043656 | 62 | 111 | 0.0 | 3.0 | 0.01 | 0.32 | 0.01 | 98 | 1017.5 |
| 20260902043154 | 62 | 115 | 0.0 | 2.0 | 0.01 | 0.32 | 0.01 | 98 | 1017.4 |
| 20260902042654 | 62 | 115 | 1.0 | 2.0 | 0.01 | 0.32 | 0.01 | 98 | 1017.4 |
| 20260902042411 | 62 | 113 | 0.0 | 2.0 | 0.01 | 0.32 | 0.01 | 98 | 1017.5 |
| 20260902041652 | 62 | 113 | 0.0 | 2.0 | 0.01 | 0.32 | 0.01 | 98 | 1017.4 |
| 20260902041150 | 62 | 113 | 0.0 | 2.0 | 0.00 | 0.31 | 0.00 | 98 | 1017.4 |
| 20260902040650 | 62 | 113 | 0.0 | 3.0 | 0.00 | 0.31 | 0.00 | 98 | 1017.3 |
| 20260902040151 | 62 | 113 | 0.0 | 3.0 | 0.00 | 0.31 | 0.00 | 98 | 1017.3 |
| 20260902035644 | 62 | 113 | 0.0 | 1.0 | 0.00 | 0.31 | 0.31 | 98 | 1017.2 |
| 20260902035139 | 62 | 113 | 0.0 | 1.0 | 0.00 | 0.31 | 0.31 | 98 | 1017.3 |
| 20260902034629 | 62 | 113 | 0.0 | 2.0 | 0.00 | 0.31 | 0.31 | 98 | 1017.4 |
| 20260902034123 | 62 | 113 | 0.0 | 2.0 | 0.00 | 0.31 | 0.31 | 98 | 1017.3 |
| 20260902033836 | 62 | 113 | 0.0 | 1.0 | 0.00 | 0.31 | 0.31 | 97 | 1017.3 |
| 20260902033107 | 62 | 113 | 0.0 | 2.0 | 0.00 | 0.31 | 0.31 | 97 | 1017.3 |
| 20260902032601 | 62 | 113 | 0.0 | 2.0 | 0.00 | 0.31 | 0.31 | 97 | 1017.3 |
| 20260902032055 | 62 | 113 | 0.0 | 2.0 | 0.00 | 0.31 | 0.31 | 97 | 1017.3 |
| 20260902031039 | 62 | 113 | 0.0 | 2.0 | 0.00 | 0.31 | 0.31 | 97 | 1017.2 |
| 20260902030533 | 62 | 113 | 0.0 | 1.0 | 0.00 | 0.31 | 0.31 | 97 | 1017.2 |
| 20260902030245 | 62 | 113 | 0.0 | 1.0 | 0.00 | 0.31 | 0.31 | 97 | 1017.1 |
| 20260902025739 | 62 | 113 | 0.0 | 2.0 | 0.00 | 0.31 | 0.31 | 97 | 1017.1 |
| 20260902025010 | 62 | 113 | 0.0 | 2.0 | 0.00 | 0.31 | 0.31 | 97 | 1017.0 |
| 20260902024501 | 62 | 113 | 0.0 | 2.0 | 0.00 | 0.31 | 0.31 | 97 | 1016.9 |
| 20260902023955 | 62 | 113 | 0.0 | 2.0 | 0.00 | 0.31 | 0.31 | 97 | 1016.8 |
| 20260902023712 | 62 | 113 | 0.0 | 2.0 | 0.00 | 0.31 | 0.31 | 97 | 1016.8 |
| 20260902022939 | 62 | 113 | 1.0 | 2.0 | 0.00 | 0.31 | 0.31 | 97 | 1016.8 |
| 20260902022433 | 62 | 113 | 1.0 | 3.0 | 0.00 | 0.31 | 0.31 | 97 | 1016.7 |
| 20260902021927 | 62 | 110 | 0.0 | 3.0 | 0.00 | 0.31 | 0.31 | 97 | 1016.8 |
| 20260902021417 | 62 | 109 | 0.0 | 2.0 | 0.00 | 0.31 | 0.31 | 97 | 1016.9 |
| 20260902020916 | 62 | 109 | 0.0 | 2.0 | 0.00 | 0.31 | 0.31 | 97 | 1016.9 |
| 20260902020416 | 62 | 109 | 0.0 | 3.0 | 0.00 | 0.31 | 0.31 | 97 | 1016.9 |
| 20260902015916 | 62 | 109 | 0.0 | 3.0 | 0.00 | 0.31 | 0.31 | 97 | 1016.9 |
| 20260902015416 | 62 | 109 | 0.0 | 3.0 | 0.00 | 0.31 | 0.31 | 97 | 1016.9 |
| 20260902014916 | 62 | 113 | 1.0 | 3.0 | 0.00 | 0.31 | 0.31 | 97 | 1016.9 |
| 20260902014414 | 62 | 113 | 0.0 | 4.0 | 0.00 | 0.31 | 0.31 | 97 | 1016.8 |
| 20260902013912 | 62 | 113 | 0.0 | 4.0 | 0.00 | 0.31 | 0.31 | 97 | 1016.7 |
| 20260902013410 | 62 | 126 | 0.0 | 3.0 | 0.00 | 0.31 | 0.31 | 97 | 1016.8 |
| 20260902012410 | 62 | 129 | 1.0 | 3.0 | 0.00 | 0.31 | 0.31 | 97 | 1016.8 |
| 20260902011908 | 62 | 129 | 0.0 | 3.0 | 0.00 | 0.31 | 0.31 | 97 | 1016.9 |
| 20260902011408 | 62 | 129 | 0.0 | 3.0 | 0.00 | 0.31 | 0.31 | 97 | 1016.9 |
| 20260902010908 | 62 | 129 | 1.0 | 4.0 | 0.00 | 0.31 | 0.31 | 97 | 1016.8 |
| 20260902010408 | 63 | 129 | 1.0 | 4.0 | 0.00 | 0.31 | 0.31 | 97 | 1016.7 |
| 20260902010124 | 63 | 126 | 1.0 | 3.0 | 0.00 | 0.31 | 0.31 | 97 | 1016.7 |
| 20260902005401 | 63 | 126 | 1.0 | 5.0 | 0.00 | 0.31 | 0.31 | 97 | 1016.7 |
| 20260902004855 | 63 | 114 | 1.0 | 5.0 | 0.00 | 0.31 | 0.31 | 97 | 1016.6 |
| 20260902004352 | 63 | 86 | 1.0 | 3.0 | 0.00 | 0.31 | 0.31 | 97 | 1016.5 |
| 20260902003852 | 63 | 85 | 1.0 | 3.0 | 0.00 | 0.31 | 0.31 | 97 | 1016.4 |
| 20260902003353 | 63 | 104 | 1.0 | 3.0 | 0.00 | 0.31 | 0.31 | 97 | 1016.2 |
| 20260902002851 | 63 | 162 | 0.0 | 2.0 | 0.00 | 0.31 | 0.31 | 97 | 1016.2 |
| 20260902002348 | 63 | 162 | 1.0 | 4.0 | 0.00 | 0.31 | 0.31 | 97 | 1016.2 |
| 20260902001848 | 63 | 163 | 1.0 | 4.0 | 0.00 | 0.31 | 0.31 | 97 | 1016.2 |
| 20260902001348 | 63 | 87 | 1.0 | 4.0 | 0.00 | 0.31 | 0.31 | 97 | 1016.4 |
| 20260902000846 | 63 | 119 | 1.0 | 3.0 | 0.00 | 0.31 | 0.31 | 97 | 1016.4 |
| 20260902000344 | 63 | 115 | 0.0 | 3.0 | 0.00 | 0.31 | 0.31 | 97 | 1016.5 |
| 20260901235842 | 63 | 114 | 0.0 | 3.0 | 0.00 | 0.31 | 0.31 | 97 | 1016.5 |
| 20260901235340 | 63 | 114 | 1.0 | 2.0 | 0.00 | 0.31 | 0.31 | 97 | 1016.5 |
| 20260901234838 | 63 | 114 | 1.0 | 2.0 | 0.00 | 0.31 | 0.31 | 97 | 1016.5 |
| 20260901234341 | 63 | 114 | 1.0 | 2.0 | 0.00 | 0.31 | 0.31 | 96 | 1016.4 |
| 20260901233839 | 63 | 113 | 1.0 | 3.0 | 0.00 | 0.31 | 0.31 | 96 | 1016.2 |
| 20260901233338 | 64 | 111 | 0.0 | 3.0 | 0.00 | 0.31 | 0.31 | 96 | 1016.5 |
| 20260901232838 | 64 | 103 | 0.0 | 3.0 | 0.00 | 0.31 | 0.31 | 96 | 1016.5 |
| 20260901232556 | 64 | 103 | 0.0 | 3.0 | 0.00 | 0.31 | 0.31 | 96 | 1016.5 |
| 20260901231336 | 64 | 102 | 0.0 | 2.0 | 0.00 | 0.31 | 0.31 | 95 | 1016.5 |
| 20260901230834 | 64 | 101 | 1.0 | 3.0 | 0.00 | 0.31 | 0.31 | 95 | 1016.4 |
| 20260901230332 | 64 | 101 | 1.0 | 4.0 | 0.00 | 0.31 | 0.31 | 95 | 1016.2 |
| 20260901225832 | 65 | 130 | 1.0 | 4.0 | 0.00 | 0.31 | 0.31 | 95 | 1016.0 |
| 20260901225555 | 65 | 106 | 1.0 | 4.0 | 0.00 | 0.31 | 0.31 | 95 | 1015.9 |
| 20260901224832 | 65 | 105 | 1.0 | 4.0 | 0.00 | 0.31 | 0.31 | 95 | 1015.9 |
| 20260901224333 | 65 | 109 | 1.0 | 4.0 | 0.00 | 0.31 | 0.31 | 94 | 1015.9 |
| 20260901223832 | 65 | 72 | 0.0 | 4.0 | 0.00 | 0.31 | 0.31 | 95 | 1015.8 |
| 20260901223331 | 65 | 148 | 0.0 | 3.0 | 0.00 | 0.31 | 0.31 | 95 | 1015.9 |
| 20260901222831 | 65 | 148 | 1.0 | 3.0 | 0.00 | 0.31 | 0.31 | 94 | 1015.9 |
| 20260901222332 | 65 | 148 | 1.0 | 3.0 | 0.00 | 0.31 | 0.31 | 95 | 1015.9 |
| 20260901221830 | 65 | 148 | 1.0 | 3.0 | 0.00 | 0.31 | 0.31 | 94 | 1015.9 |
| 20260901221329 | 65 | 142 | 1.0 | 5.0 | 0.00 | 0.31 | 0.31 | 94 | 1015.9 |
| 20260901220326 | 65 | 151 | 1.0 | 3.0 | 0.00 | 0.31 | 0.31 | 94 | 1016.0 |
| 20260901215826 | 66 | 144 | 1.0 | 3.0 | 0.00 | 0.31 | 0.31 | 93 | 1015.8 |
| 20260901215326 | 66 | 148 | 1.0 | 3.0 | 0.00 | 0.31 | 0.31 | 94 | 1015.9 |
| 20260901215055 | 66 | 148 | 0.0 | 3.0 | 0.00 | 0.31 | 0.31 | 94 | 1015.9 |
| 20260901214326 | 65 | 152 | 0.0 | 2.0 | 0.00 | 0.31 | 0.31 | 95 | 1015.9 |
| 20260901214047 | 65 | 152 | 0.0 | 2.0 | 0.00 | 0.31 | 0.31 | 95 | 1016.0 |
| 20260901213325 | 65 | 152 | 1.0 | 3.0 | 0.00 | 0.31 | 0.31 | 94 | 1016.0 |
| 20260901212825 | 65 | 151 | 1.0 | 3.0 | 0.00 | 0.31 | 0.31 | 95 | 1016.0 |
| 20260901212326 | 65 | 148 | 0.0 | 2.0 | 0.00 | 0.31 | 0.31 | 95 | 1016.0 |
| 20260901211826 | 65 | 149 | 0.0 | 2.0 | 0.00 | 0.31 | 0.31 | 96 | 1016.1 |
| 20260901211326 | 65 | 149 | 0.0 | 2.0 | 0.00 | 0.31 | 0.31 | 95 | 1016.1 |
| 20260901210826 | 65 | 149 | 0.0 | 3.0 | 0.00 | 0.31 | 0.31 | 95 | 1016.1 |
| 20260901210547 | 65 | 149 | 1.0 | 3.0 | 0.00 | 0.31 | 0.31 | 94 | 1016.1 |
| 20260901205826 | 65 | 144 | 1.0 | 3.0 | 0.00 | 0.31 | 0.31 | 95 | 1016.0 |
| 20260901205326 | 65 | 144 | 1.0 | 3.0 | 0.00 | 0.31 | 0.31 | 95 | 1016.1 |
| 20260901204826 | 65 | 144 | 1.0 | 4.0 | 0.00 | 0.31 | 0.31 | 95 | 1016.0 |
| 20260901204325 | 65 | 144 | 1.0 | 4.0 | 0.00 | 0.31 | 0.31 | 95 | 1015.8 |
| 20260901204045 | 65 | 153 | 1.0 | 5.0 | 0.00 | 0.31 | 0.31 | 95 | 1015.8 |
| 20260901203325 | 65 | 134 | 1.0 | 5.0 | 0.00 | 0.31 | 0.31 | 95 | 1015.8 |
| 20260901202825 | 65 | 134 | 1.0 | 5.0 | 0.00 | 0.31 | 0.31 | 94 | 1015.7 |
| 20260901202325 | 65 | 138 | 1.0 | 4.0 | 0.00 | 0.31 | 0.31 | 94 | 1015.7 |
| 20260901201827 | 65 | 138 | 1.0 | 4.0 | 0.00 | 0.31 | 0.31 | 94 | 1015.7 |
| 20260901201547 | 65 | 134 | 1.0 | 3.0 | 0.00 | 0.31 | 0.31 | 93 | 1015.7 |
| 20260901200827 | 66 | 126 | 1.0 | 6.0 | 0.00 | 0.31 | 0.31 | 93 | 1015.7 |
| 20260901200327 | 65 | 126 | 1.0 | 6.0 | 0.00 | 0.31 | 0.31 | 93 | 1015.7 |
| 20260901195827 | 65 | 151 | 1.0 | 5.0 | 0.00 | 0.31 | 0.31 | 93 | 1015.8 |
| 20260901195327 | 66 | 153 | 1.0 | 5.0 | 0.00 | 0.31 | 0.31 | 93 | 1015.7 |
| 20260901195045 | 65 | 153 | 1.0 | 5.0 | 0.00 | 0.31 | 0.31 | 93 | 1015.8 |
| 20260901194325 | 65 | 157 | 1.0 | 5.0 | 0.00 | 0.31 | 0.31 | 93 | 1015.8 |
| 20260901193821 | 65 | 149 | 1.0 | 3.0 | 0.00 | 0.31 | 0.31 | 93 | 1015.8 |
| 20260901193319 | 65 | 102 | 2.0 | 6.0 | 0.00 | 0.31 | 0.31 | 93 | 1015.7 |
| 20260901193044 | 65 | 101 | 2.0 | 6.0 | 0.00 | 0.31 | 0.31 | 92 | 1015.7 |
| 20260901192316 | 65 | 154 | 1.0 | 6.0 | 0.00 | 0.31 | 0.31 | 92 | 1015.7 |
| 20260901191815 | 65 | 153 | 1.0 | 6.0 | 0.00 | 0.31 | 0.31 | 94 | 1015.6 |
| 20260901191316 | 65 | 142 | 1.0 | 6.0 | 0.00 | 0.31 | 0.31 | 95 | 1015.6 |
| 20260901190813 | 65 | 119 | 1.0 | 6.0 | 0.00 | 0.31 | 0.31 | 94 | 1015.7 |
| 20260901190314 | 65 | 133 | 1.0 | 3.0 | 0.00 | 0.31 | 0.31 | 94 | 1015.8 |
| 20260901185808 | 66 | 133 | 1.0 | 4.0 | 0.00 | 0.31 | 0.31 | 95 | 1015.7 |
| 20260901185305 | 65 | 120 | 1.0 | 4.0 | 0.00 | 0.31 | 0.31 | 94 | 1015.7 |
| 20260901184752 | 65 | 138 | 1.0 | 4.0 | 0.00 | 0.31 | 0.31 | 93 | 1015.8 |
| 20260901184247 | 65 | 134 | 1.0 | 3.0 | 0.00 | 0.31 | 0.31 | 95 | 1015.8 |
| 20260901183740 | 65 | 153 | 1.0 | 3.0 | 0.00 | 0.31 | 0.31 | 95 | 1015.8 |
| 20260901183229 | 64 | 155 | 1.0 | 4.0 | 0.00 | 0.31 | 0.31 | 95 | 1015.9 |
| 20260901182724 | 64 | 78 | 1.0 | 4.0 | 0.00 | 0.31 | 0.31 | 94 | 1015.9 |
| 20260901182436 | 64 | 76 | 1.0 | 3.0 | 0.00 | 0.31 | 0.31 | 95 | 1015.9 |
| 20260901181928 | 64 | 71 | 1.0 | 7.0 | 0.00 | 0.31 | 0.31 | 94 | 1015.9 |
| 20260901181202 | 64 | 65 | 2.0 | 7.0 | 0.00 | 0.31 | 0.31 | 94 | 1015.8 |
| 20260901180656 | 64 | 78 | 2.0 | 9.0 | 0.00 | 0.31 | 0.31 | 94 | 1015.8 |
| 20260901180145 | 64 | 103 | 2.0 | 9.0 | 0.00 | 0.31 | 0.31 | 94 | 1015.7 |
| 20260901175903 | 65 | 114 | 2.0 | 7.0 | 0.00 | 0.31 | 0.31 | 94 | 1015.7 |
| 20260901175134 | 65 | 170 | 2.0 | 7.0 | 0.00 | 0.31 | 0.31 | 94 | 1015.7 |
| 20260901174849 | 65 | 81 | 2.0 | 8.0 | 0.00 | 0.31 | 0.31 | 93 | 1015.7 |
| 20260901174117 | 65 | 173 | 2.0 | 8.0 | 0.00 | 0.31 | 0.31 | 93 | 1015.7 |
| 20260901173842 | 65 | 127 | 1.0 | 6.0 | 0.00 | 0.31 | 0.31 | 94 | 1015.7 |
| 20260901173100 | 65 | 147 | 1.0 | 10.0 | 0.00 | 0.31 | 0.31 | 95 | 1015.7 |
| 20260901172554 | 65 | 147 | 2.0 | 10.0 | 0.00 | 0.31 | 0.31 | 94 | 1015.7 |
| 20260901172048 | 65 | 99 | 2.0 | 7.0 | 0.00 | 0.31 | 0.31 | 94 | 1015.7 |
| 20260901171801 | 65 | 119 | 2.0 | 7.0 | 0.00 | 0.31 | 0.31 | 96 | 1015.6 |
| 20260901171032 | 64 | 159 | 2.0 | 7.0 | 0.00 | 0.31 | 0.31 | 96 | 1015.6 |
| 20260901170526 | 64 | 112 | 2.0 | 8.0 | 0.00 | 0.31 | 0.31 | 96 | 1015.7 |
| 20260901170236 | 64 | 38 | 1.0 | 8.0 | 0.00 | 0.31 | 0.31 | 96 | 1015.6 |
| 20260901165510 | 63 | 135 | 2.0 | 3.0 | 0.00 | 0.31 | 0.31 | 96 | 1015.7 |
| 20260901165004 | 63 | 132 | 2.0 | 8.0 | 0.00 | 0.31 | 0.31 | 96 | 1015.8 |
| 20260901164454 | 63 | 134 | 2.0 | 8.0 | 0.00 | 0.31 | 0.31 | 96 | 1015.7 |
| 20260901163443 | 63 | 63 | 2.0 | 6.0 | 0.00 | 0.31 | 0.31 | 97 | 1015.7 |
| 20260901161920 | 62 | 56 | 1.0 | 6.0 | 0.00 | 0.31 | 0.31 | 97 | 1015.9 |
| 20260901161410 | 62 | 130 | 1.0 | 6.0 | 0.00 | 0.31 | 0.31 | 97 | 1015.9 |
| 20260901160904 | 62 | 137 | 1.0 | 6.0 | 0.00 | 0.31 | 0.31 | 97 | 1015.9 |
| 20260901160620 | 62 | 138 | 1.0 | 5.0 | 0.00 | 0.31 | 0.31 | 97 | 1016.0 |
| 20260901160107 | 63 | 86 | 1.0 | 5.0 | 0.00 | 0.31 | 0.31 | 98 | 1016.0 |
| 20260901155342 | 62 | 108 | 1.0 | 4.0 | 0.00 | 0.31 | 0.31 | 98 | 1016.0 |
| 20260901154836 | 62 | 96 | 1.0 | 3.0 | 0.00 | 0.31 | 0.31 | 98 | 1016.1 |
| 20260901153819 | 62 | 94 | 1.0 | 6.0 | 0.00 | 0.31 | 0.31 | 98 | 1016.0 |